User: anonymous   Login
Location: Oshawa
(43.9000°N, 78.8670°W)
Time: 07:30:47
(UTC-05:00)
Language:

Cosmos 1707 Rocket - Orbit

View from above orbital plane
View from above orbital plane
View from above satellite
View from above satellite

Ground track
Ground track

The orbit data is extracted from the following two-line orbital elements,

1 16327U 85113B   15059.38464356  .00000485  00000-0  56651-4 0  9990
2 16327 082.5372 157.3539 0017986 234.8612 192.1465 14.83051717577394
Epoch (UTC): 28 February 2015 09:13:53
Eccentricity: 0.0017986
inclination: 82.5372°
perigee height: 607 km
apogee height: 632 km
right ascension of ascending node: 157.3539°
argument of perigee: 234.8612°
revolutions per day: 14.83051717
mean anomaly at epoch: 192.1465°
orbit number at epoch: 57739

The dashed part of the orbit path shows where the satellite is in the earth's shadow,  

DLR